weather.gov     
National Weather Service

Terminal Aerodrome Forecast
NWS Homepage
This page is being discontinued on March 12, 2014.
The same data is available at this site. Please update your bookmarks.
Thank you, and we apologize for the inconvenience.
Please send an email to SR-SRH.Webmaster@noaa.gov with any concerns.


Current Version
Previous Version:    01  02  03  04  05  06  07  08  09  10  11  12  13  14  15  16  17  18  19  20  21  22  23  
[Printable]
371
FTUS45 KSLC 211137
TAFENV
TAF
KENV 211137Z 2112/2212 34008KT P6SM VCSH FEW040 BKN080
     FM211900 29014G24KT P6SM FEW080 BKN120
     FM220200 32016G28KT P6SM SCT120
      AMD LTD TO CLD VIS AND WIND=




371
FTUS45 KSLC 211137
TAFENV
TAF
KENV 211137Z 2112/2212 34008KT P6SM VCSH FEW040 BKN080
     FM211900 29014G24KT P6SM FEW080 BKN120
     FM220200 32016G28KT P6SM SCT120
      AMD LTD TO CLD VIS AND WIND=


U.S. Dept. of Commerce
NOAA National Weather Service
1325 East West Highway
Silver Spring, MD 20910
E-mail: w-nws.webmaster@noaa.gov
Page last modified: May 16, 2007
NATIONAL WEATHER SERVICE: for Safety, for Work, for Fun - FOR LIFE